Weather History for Martha's Vineyard, MA

Change the Weather History Date:

Monday, December 31, 2012

  Actual Average Record
Temperature  
Mean Temperature 31 °F -  
Max Temperature 39 °F 39 °F 57 °F (2011)
Min Temperature 23 °F 22 °F -3 °F (1962)
Degree Days  
Heating Degree Days 34    
Moisture  
Dew Point 21 °F    
Average Humidity 65    
Maximum Humidity 76    
Minimum Humidity 57    
Precipitation  
Precipitation 0.00 in - - ()
Sea Level Pressure  
Sea Level Pressure 29.98 in    
Wind  
Wind Speed 14 mph (West)    
Max Wind Speed 21 mph    
Max Gust Speed 32 mph    
Visibility 10 miles    
Events      
Averages and records for this station are not official NWS values.
T = Trace of Precipitation, MM = Missing Value Source: NWS Daily Summary

Daily Weather History Graph

Daily Weather History Graph

Search for Another Location

Airport:

Trip Planner

Search our weather history database for the weather conditions in past years. The results will help you decide how hot, cold, wet, or windy it might be!

Date:

Astronomy

Dec. 31, 2012 Rise Set
Actual Time 7:08 AM EST 4:23 PM EST
Civil Twilight 6:37 AM EST 4:54 PM EST
Nautical Twilight 6:02 AM EST 5:29 PM EST
Astronomical Twilight 5:28 AM EST 6:02 PM EST
Moon 7:53 PM EST 8:46 AM EST
Length of Visible Light 10h 17m
Length of Day
9h 14m
Waning Gibbous, 90% of the Moon is Illuminated
Dec 31
Waning Gibbous
Jan 4
Last Quarter
Jan 11
New
Jan 18
First Quarter
Jan 26
Full

Hourly Weather History & Observations

Time (EST) Temp. Windchill Dew Point Humidity Pressure Visibility Wind Dir Wind Speed Gust Speed Precip Events Conditions
12:53 AM 24.1 °F 9.4 °F 10.9 °F 57% 30.00 in 10.0 mi NW 20.7 mph 32.2 mph N/A   Clear
1:53 AM 23.0 °F 10.1 °F 12.0 °F 63% 30.02 in 10.0 mi NW 15.0 mph 24.2 mph N/A   Clear
2:53 AM 24.1 °F 11.5 °F 12.0 °F 60% 30.05 in 10.0 mi WNW 15.0 mph 23.0 mph N/A   Clear
3:53 AM 25.0 °F 12.6 °F 12.0 °F 58% 30.06 in 10.0 mi WNW 15.0 mph 21.9 mph N/A   Clear
4:53 AM 26.1 °F 13.6 °F 14.0 °F 60% 30.05 in 10.0 mi WNW 16.1 mph 25.3 mph N/A   Clear
5:53 AM 27.0 °F 16.7 °F 16.0 °F 63% 30.07 in 10.0 mi West 11.5 mph - N/A   Clear
6:53 AM 28.0 °F 20.0 °F 17.1 °F 63% 30.09 in 10.0 mi West 8.1 mph - N/A   Clear
7:53 AM 30.0 °F 20.5 °F 19.9 °F 66% 30.07 in 10.0 mi West 11.5 mph 17.3 mph N/A   Clear
8:53 AM 32.0 °F 22.1 °F 21.0 °F 64% 30.08 in 10.0 mi West 13.8 mph 21.9 mph N/A   Overcast
9:53 AM 32.0 °F 22.5 °F 21.9 °F 66% 30.07 in 10.0 mi West 12.7 mph 18.4 mph N/A   Overcast
10:53 AM 32.0 °F 20.8 °F 23.0 °F 69% 30.05 in 10.0 mi West 17.3 mph 26.5 mph N/A   Overcast
11:53 AM 33.1 °F 22.2 °F 23.0 °F 66% 30.01 in 10.0 mi WNW 17.3 mph 26.5 mph N/A   Overcast
12:53 PM 33.1 °F 23.9 °F 23.0 °F 66% 29.98 in 10.0 mi WNW 12.7 mph 23.0 mph N/A   Mostly Cloudy
1:53 PM 34.0 °F 26.0 °F 24.1 °F 67% 29.96 in 10.0 mi West 10.4 mph 19.6 mph N/A   Partly Cloudy
2:53 PM 34.0 °F 27.2 °F 24.1 °F 67% 29.95 in 10.0 mi West 8.1 mph 18.4 mph N/A   Partly Cloudy
3:53 PM 34.0 °F 28.0 °F 24.1 °F 67% 29.94 in 10.0 mi West 6.9 mph - N/A   Clear
4:53 PM 34.0 °F 27.2 °F 25.0 °F 70% 29.94 in 10.0 mi West 8.1 mph - N/A   Clear
5:53 PM 35.1 °F 29.3 °F 26.1 °F 70% 29.91 in 10.0 mi West 6.9 mph - N/A   Clear
6:53 PM 36.0 °F 29.0 °F 28.9 °F 76% 29.91 in 10.0 mi WSW 9.2 mph 19.6 mph N/A   Clear
7:53 PM 37.0 °F 28.9 °F 26.1 °F 65% 29.88 in 10.0 mi WSW 12.7 mph 21.9 mph N/A   Partly Cloudy
8:53 PM 37.0 °F 31.0 °F 27.0 °F 67% 29.86 in 10.0 mi WSW 8.1 mph - N/A   Scattered Clouds
10:53 PM 39.0 °F 30.6 °F 25.0 °F 57% 29.82 in 10.0 mi West 15.0 mph 28.8 mph N/A   Overcast
11:53 PM 37.9 °F 30.9 °F 26.1 °F 62% 29.82 in 10.0 mi West 10.4 mph - N/A   Overcast